CFG1MA EDDM-EDDL

Flight info

Callsign CFG1MA
Flight time N/A
Altitude 32000
Route GIVMI6Q GIVMI Y101 INBED DCT REKDI DCT LOHRE Z850 ARPEG/N0408F240 Z850 ADEMI T854 DOMUX DOMUX1A
Aircraft A321/M-SDE3FGHIRWY/LB1

Departure

Time 2026-05-04 15:52
Airport Munich Airport (EDDM)

Arrival

Time N/A
Airport Düsseldorf Airport (EDDL)
Time Latitude Longitude Altitude Speed Heading
2026-05-04 15:22 48.34972 11.77967 1474 ft 0 kts 83°
2026-05-04 15:37 48.34969 11.77937 1472 ft 4 kts 83°
2026-05-04 15:37 48.34967 11.77904 1480 ft 4 kts 71°
2026-05-04 15:38 48.34954 11.77887 1472 ft 4 kts 356°
2026-05-04 15:38 48.34929 11.77891 1480 ft 3 kts 353°
2026-05-04 15:38 48.34926 11.77891 1480 ft 0 kts 353°
2026-05-04 15:41 48.34933 11.77890 1485 ft 3 kts 353°
2026-05-04 15:41 48.34971 11.77884 1480 ft 6 kts 353°
2026-05-04 15:42 48.35009 11.77878 1474 ft 7 kts 354°
2026-05-04 15:42 48.35076 11.77867 1474 ft 11 kts 353°
2026-05-04 15:42 48.35161 11.77852 1485 ft 14 kts 353°
2026-05-04 15:42 48.35265 11.77833 1478 ft 16 kts 353°
2026-05-04 15:43 48.35369 11.77816 1485 ft 15 kts 354°
2026-05-04 15:43 48.35468 11.77799 1483 ft 14 kts 353°
2026-05-04 15:43 48.35561 11.77783 1480 ft 13 kts 353°
2026-05-04 15:43 48.35648 11.77768 1478 ft 12 kts 353°
2026-05-04 15:44 48.35724 11.77754 1477 ft 9 kts 351°
2026-05-04 15:44 48.35779 11.77720 1476 ft 8 kts 326°
2026-05-04 15:44 48.35827 11.77700 1481 ft 7 kts 349°
2026-05-04 15:44 48.35862 11.77693 1485 ft 0 kts 354°
2026-05-04 15:45 48.35873 11.77692 1485 ft 4 kts 354°
2026-05-04 15:45 48.35916 11.77686 1483 ft 7 kts 354°
2026-05-04 15:46 48.35952 11.77653 1480 ft 7 kts 303°
2026-05-04 15:46 48.35957 11.77550 1481 ft 11 kts 264°
2026-05-04 15:46 48.35948 11.77423 1482 ft 15 kts 263°
2026-05-04 15:46 48.35933 11.77244 1477 ft 19 kts 262°
2026-05-04 15:47 48.35922 11.77086 1476 ft 8 kts 264°
2026-05-04 15:47 48.35915 11.76980 1485 ft 14 kts 264°
2026-05-04 15:47 48.35953 11.76845 1479 ft 15 kts 327°
2026-05-04 15:47 48.36036 11.76813 1475 ft 11 kts 352°
2026-05-04 15:48 48.36094 11.76802 1480 ft 5 kts 353°
2026-05-04 15:48 48.36133 11.76795 1480 ft 7 kts 353°
2026-05-04 15:48 48.36257 11.76773 1482 ft 10 kts 359°
2026-05-04 15:49 48.36279 11.76815 1479 ft 0 kts 79°
2026-05-04 15:50 48.36279 11.76816 1479 ft 0 kts 79°
2026-05-04 15:51 48.36283 11.76849 1474 ft 15 kts 82°
2026-05-04 15:51 48.36325 11.77377 1481 ft 84 kts 83°
2026-05-04 15:51 48.36414 11.78540 1482 ft 137 kts 83°
2026-05-04 15:51 48.36542 11.80178 1492 ft 176 kts 83°
2026-05-04 15:52 48.36683 11.82054 1943 ft 180 kts 82°
2026-05-04 15:52 48.36829 11.83932 2508 ft 181 kts 82°
2026-05-04 15:52 48.37000 11.85822 3019 ft 186 kts 75°
2026-05-04 15:52 48.37787 11.87416 3185 ft 204 kts 28°
2026-05-04 15:53 48.39240 11.87809 3336 ft 222 kts 356°
2026-05-04 15:53 48.40848 11.87480 3461 ft 246 kts 343°
2026-05-04 15:53 48.42307 11.86020 3853 ft 263 kts 309°
2026-05-04 15:53 48.43404 11.83778 4581 ft 269 kts 307°
2026-05-04 15:54 48.44559 11.81585 5350 ft 273 kts 309°
2026-05-04 15:54 48.45812 11.79358 6132 ft 277 kts 310°
2026-05-04 15:54 48.47067 11.77185 6856 ft 281 kts 310°
2026-05-04 15:54 48.48377 11.74927 7627 ft 284 kts 310°
2026-05-04 15:55 48.49663 11.72705 8379 ft 286 kts 309°
2026-05-04 15:55 48.50988 11.70398 9160 ft 289 kts 308°
2026-05-04 15:55 48.52307 11.68084 9904 ft 292 kts 308°
2026-05-04 15:55 48.53639 11.65734 10578 ft 296 kts 308°
2026-05-04 15:56 48.54984 11.63355 11254 ft 300 kts 307°
2026-05-04 15:56 48.56344 11.60951 11942 ft 303 kts 307°
2026-05-04 15:56 48.57707 11.58541 12536 ft 312 kts 307°
2026-05-04 15:56 48.59166 11.55949 12695 ft 335 kts 307°
2026-05-04 15:57 48.60732 11.53161 12840 ft 358 kts 308°
2026-05-04 15:57 48.62415 11.50164 13021 ft 378 kts 308°
2026-05-04 15:57 48.64113 11.47142 13561 ft 386 kts 308°
2026-05-04 15:57 48.65860 11.44033 14153 ft 390 kts 308°
2026-05-04 15:58 48.67626 11.40892 14763 ft 393 kts 308°
2026-05-04 15:58 48.69428 11.37755 15369 ft 398 kts 311°
2026-05-04 15:58 48.71543 11.35025 15994 ft 403 kts 323°
2026-05-04 15:58 48.73920 11.32632 16607 ft 406 kts 324°
2026-05-04 15:59 48.76249 11.30290 17173 ft 409 kts 323°
2026-05-04 15:59 48.78623 11.27889 17778 ft 412 kts 323°
2026-05-04 15:59 48.81013 11.25459 18339 ft 415 kts 323°
2026-05-04 15:59 48.83434 11.23047 18842 ft 419 kts 327°
2026-05-04 16:00 48.86076 11.21132 19316 ft 425 kts 337°
2026-05-04 16:00 48.88890 11.19701 19792 ft 428 kts 339°
2026-05-04 16:00 48.91723 11.18273 20253 ft 430 kts 339°
2026-05-04 16:00 48.94569 11.16831 20705 ft 432 kts 339°
2026-05-04 16:01 48.97433 11.15374 21161 ft 434 kts 339°
2026-05-04 16:01 49.00304 11.13909 21633 ft 436 kts 338°
2026-05-04 16:01 49.03190 11.12435 22087 ft 439 kts 338°
2026-05-04 16:01 49.06093 11.10955 22527 ft 441 kts 338°
2026-05-04 16:02 49.09011 11.09467 22969 ft 444 kts 338°
2026-05-04 16:02 49.11947 11.07965 23413 ft 447 kts 338°
2026-05-04 16:02 49.17883 11.04932 24171 ft 452 kts 339°
2026-05-04 16:03 49.20875 11.03403 24565 ft 454 kts 338°
2026-05-04 16:03 49.23880 11.01858 24955 ft 457 kts 338°
2026-05-04 16:03 49.26900 11.00300 25308 ft 459 kts 338°
2026-05-04 16:03 49.29933 10.98732 25678 ft 461 kts 338°
2026-05-04 16:04 49.32982 10.97155 26043 ft 463 kts 338°
2026-05-04 16:04 49.38667 10.92685 26752 ft 459 kts 320°
2026-05-04 16:04 49.41086 10.89502 27113 ft 457 kts 311°
2026-05-04 16:05 49.43161 10.85831 27474 ft 456 kts 305°
2026-05-04 16:05 49.45157 10.82024 27833 ft 458 kts 306°
2026-05-04 16:05 49.49166 10.74441 28843 ft 455 kts 305°
2026-05-04 16:06 49.51165 10.70663 29316 ft 454 kts 305°
2026-05-04 16:06 49.56429 10.60668 30481 ft 450 kts 305°
2026-05-04 16:07 49.59050 10.55649 30917 ft 449 kts 305°
2026-05-04 16:07 49.64883 10.44409 31678 ft 446 kts 304°
2026-05-04 16:08 49.66770 10.40626 31893 ft 444 kts 302°
2026-05-04 16:08 49.71927 10.28952 32138 ft 437 kts 299°
2026-05-04 16:09 49.75262 10.21107 32941 ft 435 kts 300°
2026-05-04 16:09 49.78632 10.13384 33675 ft 431 kts 300°
2026-05-04 16:10 49.82004 10.05732 33983 ft 430 kts 300°
2026-05-04 16:11 49.88720 9.90350 33982 ft 438 kts 300°
2026-05-04 16:12 49.99081 9.66414 34925 ft 440 kts 300°
2026-05-04 16:13 50.02483 9.58501 35439 ft 440 kts 299°
2026-05-04 16:13 50.05915 9.50617 35913 ft 443 kts 304°
2026-05-04 16:14 50.10454 9.43864 35982 ft 459 kts 316°
2026-05-04 16:14 50.15451 9.37608 35978 ft 461 kts 316°
2026-05-04 16:16 50.27892 9.21818 35998 ft 461 kts 316°
2026-05-04 16:17 50.40330 9.05901 35988 ft 462 kts 316°
2026-05-04 16:18 50.50284 8.93113 35989 ft 462 kts 316°
2026-05-04 16:19 50.62937 8.77649 35747 ft 451 kts 318°
2026-05-04 16:20 50.70401 8.68766 34512 ft 447 kts 317°
2026-05-04 16:20 50.75331 8.62774 33494 ft 448 kts 317°
2026-05-04 16:21 50.82749 8.53753 31898 ft 453 kts 317°
2026-05-04 16:22 50.87798 8.47612 30898 ft 457 kts 318°
2026-05-04 16:22 50.95406 8.38326 29318 ft 463 kts 318°
2026-05-04 16:23 51.03211 8.29243 27302 ft 472 kts 327°
2026-05-04 16:24 51.14786 8.18950 24796 ft 472 kts 327°
2026-05-04 16:25 51.20446 8.13920 23639 ft 466 kts 327°
2026-05-04 16:26 51.31545 8.03955 21012 ft 449 kts 327°
2026-05-04 16:26 51.39583 7.96699 19916 ft 439 kts 328°
2026-05-04 16:27 51.44306 7.90804 19907 ft 428 kts 300°
2026-05-04 16:28 51.45948 7.77157 20132 ft 415 kts 263°
2026-05-04 16:28 51.43840 7.63580 16887 ft 416 kts 252°
2026-05-04 16:29 51.39336 7.47357 14167 ft 381 kts 235°
2026-05-04 16:30 51.35027 7.36939 11931 ft 358 kts 235°
2026-05-04 16:31 51.32311 7.30400 10984 ft 341 kts 234°
2026-05-04 16:31 51.29034 7.22559 10644 ft 290 kts 234°